Temp
82 84 85 86 84 81 79 78 77 76 77 74 73 73 76 76 76 77 79 80 78 80 77 74 75 75 73 72 74 72 73 72 72 71 71 72 73 73 72 73 74 74 78
79 82 83 84 83 81 81 78 79 76 74 76 74 73 73 74 77 77 78 78 78 78 77 74 74 74 73 74 74 73 72 72 72 70 68 67 70 71 71 72 73 72 74
79 81 82 82 83 80 80 79 79 78 78 75 74 72 72 73 74 74 75 76 78 78 77 76 74 74 74 74 73 73 73 70 72 72 70 65 65 67 70 71 73 73 73
83 83 81 81 82 82 83 81 80 79 78 76 75 74 73 71 73 75 77 77 77 79 79 77 75 75 74 73 73 75 73 71 69 70 73 70 70 66 65 69 70 71 74
84 84 83 84 84 84 83 81 81 79 78 77 74 74 73 75 76 75 76 76 76 79 80 77 76 75 74 74 74 73 72 72 70 70 70 69 69 69 66 64 67 70 71
85 86 87 86 84 85 84 81 79 78 77 77 77 75 74 75 74 74 73 73 75 76 78 78 76 75 74 74 73 72 71 70 70 70 70 69 67 67 66 65 66 67 71
85 84 85 81 84 82 82 81 78 77 77 76 77 77 76 75 74 74 74 73 74 74 76 75 75 75 74 74 72 71 70 69 69 70 70 70 70 70 69 66 66 66 68
86 84 86 84 84 83 81 82 77 76 77 76 76 76 77 76 75 75 75 75 74 75 75 75 74 74 75 73 72 69 68 69 70 69 70 70 70 70 69 68 66 64 64
86 85 82 82 81 82 80 81 77 76 77 77 75 75 76 76 75 76 75 75 75 78 77 75 75 75 74 73 71 69 68 68 70 70 70 69 69 68 67 67 66 65 60
81 80 80 80 80 82 80 78 78 77 78 76 75 76 75 76 76 76 76 76 77 76 76 75 75 73 72 72 71 68 67 68 68 69 68 67 67 67 66 66 65 64 63
79 79 80 81 80 80 79 77 76 75 75 77 76 76 76 76 76 77 77 77 77 76 74 75 74 73 70 70 69 68 68 68 67 67 68 68 67 66 66 65 65 65 64
80 81 81 80 80 79 77 78 78 77 79 78 76 77 79 78 77 78 79 78 77 75 73 72 72 72 70 69 68 69 70 67 67 67 66 67 72 65 65 65 64 63 63
76 77 78 77 77 77 76 76 77 77 78 77 77 76 76 77 77 76 74 74 74 72 72 69 68 69 71 71 70 69 69 70 69 69 67 68 67 65 64 64 64 63 66
78 78 76 75 75 75 74 74 74 74 73 75 72 71 70 71 71 70 71 71 72 71 71 69 68 66 71 71 71 69 69 69 70 70 70 68 68 67 66 65 64 63 62
75 74 73 73 73 74 74 72 71 71 71 70 70 68 69 69 70 69 69 70 69 69 68 67 67 67 68 70 68 70 69 69 71 71 70 70 71 71 68 66 63 63 61
74 74 73 72 72 71 72 71 70 69 70 70 68 68 68 69 68 68 68 68 68 69 69 69 68 68 69 69 70 72 69 67 69 69 70 70 72 70 69 69 68 66 61
71 70 69 69 69 69 70 68 68 68 68 68 67 67 67 66 65 65 65 65 65 65 66 68 69 68 69 68 67 69 68 67 69 68 68 68 70 67 66 67 68 69 68
70 69 69 68 68 68 68 68 68 67 67 66 66 66 65 63 63 63 64 66 66 65 64 63 63 65 65 62 64 67 67 65 65 65 67 67 66 64 64 64 63 64 65
70 69 70 68 68 67 67 66 65 65 66 66 65 65 63 63 62 63 64 66 64 62 62 63 62 61 61 61 63 64 60 57 57 58 59 59 59 62 63 64 64 61 63
71 70 70 68 67 66 66 65 64 64 65 66 66 65 63 62 62 61 61 61 65 63 64 62 61 61 61 59 61 61 59 56 56 56 57 59 57 57 57 57 57 56 57
71 70 68 66 67 67 66 64 64 64 66 66 65 65 64 63 62 61 60 59 61 61 61 60 60 60 59 59 58 60 60 58 57 57 56 56 57 56 56 57 57 57 58
70 69 66 66 66 66 66 64 64 66 66 64 63 63 62 64 62 61 60 59 58 58 57 62 59 58 57 58 57 58 59 60 58 57 57 57 56 56 56 57 58 58 60
69 68 67 65 66 66 66 65 65 66 65 62 61 61 60 60 59 58 57 57 58 57 56 55 54 55 56 56 58 58 58 59 56 55 57 56 55 55 56 57 58 59 57
69 67 66 65 65 66 67 67 67 67 64 62 60 59 57 56 56 57 56 56 56 57 56 55 54 54 54 54 54 56 57 59 57 59 57 58 58 58 58 59 59 58 58
68 68 66 64 65 65 66 66 66 66 64 63 61 60 58 55 53 52 52 54 52 52 56 53 52 53 52 52 47 48 51 51 52 53 57 56 57 57 58 58 58 58 58
67 66 65 64 64 65 66 66 66 65 63 62 62 61 59 56 55 54 53 49 47 47 47 48 51 50 48 47 45 44 45 47 48 54 53 53 55 55 55 56 56 54 56
MSLP
1009.82 1010.20 1010.72 1011.20 1011.77 1012.25 1012.70 1012.96 1013.41 1013.69 1014.15 1014.61 1014.91 1015.23 1015.37 1015.44 1015.49 1015.20 1015.16 1015.24 1015.24 1015.34 1015.56 1015.56 1015.55 1015.75 1016.11 1016.25 1016.20 1016.30 1016.17 1016.02 1015.83 1015.94 1015.62 1015.64 1015.28 1015.53 1015.38 1015.20 1014.92 1014.81 1015.33
1009.97 1010.37 1010.72 1011.03 1011.48 1011.72 1012.17 1012.54 1012.90 1013.50 1013.82 1014.15 1014.48 1014.87 1015.15 1015.11 1015.03 1014.97 1014.93 1014.73 1014.75 1014.82 1015.08 1015.18 1015.33 1015.53 1015.77 1015.87 1015.90 1016.02 1016.07 1015.91 1015.67 1015.91 1016.17 1016.06 1015.82 1015.77 1015.46 1015.45 1015.16 1015.02 1015.37
1009.72 1010.12 1010.42 1010.79 1011.27 1011.50 1011.60 1012.07 1012.52 1013.02 1013.39 1013.77 1014.45 1015.01 1015.06 1015.08 1014.98 1014.77 1014.72 1014.51 1014.30 1014.33 1014.45 1014.63 1014.90 1015.23 1015.34 1015.47 1015.64 1015.77 1015.89 1015.96 1015.59 1015.61 1015.87 1016.03 1016.09 1015.88 1015.64 1015.61 1015.38 1015.27 1015.60
1009.06 1009.40 1009.94 1010.40 1010.69 1010.97 1011.30 1011.63 1012.21 1012.77 1013.20 1013.57 1014.11 1014.51 1014.74 1014.88 1014.52 1014.26 1014.10 1014.17 1013.94 1013.91 1013.95 1014.29 1014.54 1014.91 1015.14 1015.34 1015.44 1015.47 1015.65 1015.79 1015.96 1015.63 1015.33 1015.41 1015.53 1015.79 1015.87 1015.67 1015.60 1015.49 1015.18
1008.20 1008.72 1009.11 1009.37 1009.87 1010.62 1011.03 1011.44 1011.94 1012.55 1012.94 1013.31 1013.63 1014.04 1014.36 1014.24 1013.89 1013.89 1013.92 1013.95 1013.83 1013.75 1013.78 1014.12 1014.35 1014.73 1014.90 1015.06 1015.22 1015.39 1015.47 1015.59 1015.69 1015.54 1015.17 1015.23 1015.37 1015.34 1015.61 1015.85 1015.71 1015.59 1015.02
1007.71 1008.13 1008.26 1008.95 1009.55 1010.33 1010.97 1011.44 1011.90 1012.27 1012.62 1012.94 1013.19 1013.66 1013.83 1013.91 1013.91 1013.80 1013.92 1014.01 1013.97 1013.91 1013.78 1013.84 1013.94 1014.20 1014.73 1015.10 1015.29 1015.40 1015.52 1015.69 1015.60 1015.33 1015.14 1015.12 1015.24 1015.24 1015.40 1015.64 1015.29 1015.15 1014.65
1007.11 1007.56 1007.95 1008.60 1009.26 1009.93 1010.57 1011.29 1011.79 1012.10 1012.37 1012.72 1012.99 1013.12 1013.41 1013.61 1013.70 1013.69 1013.75 1013.90 1013.99 1014.00 1013.81 1013.90 1014.07 1014.29 1014.52 1014.82 1015.11 1015.30 1015.45 1015.51 1015.49 1015.28 1015.00 1014.75 1014.80 1014.82 1014.91 1015.27 1015.15 1015.12 1014.47
1006.54 1006.81 1007.22 1007.91 1008.67 1009.41 1010.09 1010.83 1011.56 1011.99 1012.21 1012.38 1012.56 1012.71 1012.91 1013.25 1013.56 1013.68 1013.82 1014.01 1014.08 1014.00 1013.86 1013.93 1014.16 1014.33 1014.34 1014.66 1015.02 1015.21 1015.29 1015.20 1015.08 1015.05 1015.04 1014.84 1014.68 1014.49 1014.50 1014.62 1014.95 1015.26 1015.08
1006.08 1006.61 1007.01 1007.64 1008.41 1009.27 1009.78 1010.32 1011.12 1011.68 1012.03 1012.18 1012.43 1012.61 1012.73 1013.04 1013.30 1013.43 1013.48 1013.46 1013.36 1013.25 1013.18 1013.24 1013.51 1013.71 1013.87 1014.19 1014.40 1014.62 1014.98 1015.25 1015.17 1014.90 1014.74 1014.82 1014.72 1014.49 1014.39 1014.33 1014.45 1014.92 1015.52
1006.19 1006.69 1007.24 1007.73 1008.35 1008.94 1009.66 1010.34 1010.84 1011.17 1011.44 1011.90 1012.23 1012.48 1012.65 1012.77 1012.89 1013.08 1013.05 1012.97 1013.00 1013.11 1013.07 1013.11 1013.15 1013.29 1013.27 1013.62 1013.92 1014.35 1014.39 1014.50 1014.69 1014.87 1014.83 1014.75 1014.66 1014.53 1014.36 1014.42 1014.46 1014.66 1015.06
1006.32 1006.84 1007.31 1007.70 1008.30 1009.00 1009.69 1010.25 1010.71 1011.01 1011.19 1011.39 1011.70 1012.06 1012.13 1012.13 1012.31 1012.58 1012.69 1012.72 1012.46 1012.06 1012.19 1012.33 1012.65 1013.12 1013.68 1013.97 1014.21 1014.05 1014.36 1014.68 1014.74 1014.55 1014.58 1014.57 1014.42 1014.49 1014.53 1014.54 1014.55 1014.69 1014.86
1006.63 1006.91 1007.40 1007.92 1008.67 1009.25 1009.75 1010.05 1010.38 1010.74 1010.76 1010.86 1011.36 1011.50 1011.52 1011.73 1011.94 1012.03 1011.94 1012.21 1012.35 1012.47 1013.73 1014.33 1014.85 1014.40 1013.83 1014.26 1014.38 1014.14 1013.70 1014.08 1014.49 1014.48 1014.49 1014.55 1014.49 1014.55 1014.40 1014.41 1014.67 1014.73 1014.75
1007.83 1008.12 1008.66 1009.18 1009.54 1010.05 1010.46 1010.76 1011.00 1011.08 1011.05 1011.17 1011.63 1012.15 1012.27 1012.43 1012.62 1012.80 1012.79 1012.70 1012.45 1011.88 1011.56 1012.23 1013.12 1011.64 1014.94 1013.69 1013.51 1013.74 1012.97 1012.74 1013.52 1013.83 1014.04 1014.06 1014.24 1014.63 1014.55 1014.43 1014.55 1014.73 1014.72
1008.92 1009.24 1009.84 1010.36 1010.65 1010.90 1011.28 1011.59 1011.86 1011.79 1011.31 1011.62 1012.50 1012.78 1013.05 1013.07 1013.08 1013.45 1013.20 1012.62 1012.09 1011.53 1011.72 1012.21 1012.44 1012.21 1013.08 1013.39 1013.55 1013.45 1012.99 1012.90 1012.88 1013.37 1013.53 1013.64 1013.85 1014.00 1014.38 1014.32 1014.50 1014.62 1014.80
1009.83 1010.41 1010.95 1011.27 1011.59 1011.81 1012.13 1012.50 1012.68 1012.60 1012.50 1012.74 1013.34 1013.66 1013.73 1013.68 1013.60 1013.64 1013.51 1013.00 1012.47 1012.15 1012.11 1012.69 1012.85 1013.30 1013.29 1013.16 1013.28 1013.15 1012.86 1012.84 1012.95 1012.97 1013.00 1012.96 1013.11 1013.30 1013.54 1013.87 1014.14 1014.50 1014.86
1010.72 1011.18 1011.67 1012.15 1012.51 1012.70 1012.93 1013.16 1013.30 1013.34 1013.44 1013.59 1014.06 1014.23 1014.17 1014.02 1013.90 1013.80 1013.79 1013.64 1013.34 1013.00 1012.84 1012.95 1012.97 1012.91 1013.00 1012.78 1012.47 1012.42 1012.46 1012.51 1012.64 1012.57 1012.36 1012.44 1012.55 1012.73 1012.84 1013.08 1013.26 1013.92 1014.51
1011.47 1011.85 1012.21 1012.63 1013.02 1013.28 1013.48 1013.74 1013.92 1013.93 1013.90 1014.17 1014.56 1014.73 1014.79 1014.79 1014.69 1014.56 1014.42 1014.26 1014.16 1013.86 1013.55 1013.27 1013.13 1013.08 1013.02 1012.75 1012.46 1012.29 1012.33 1012.20 1012.08 1011.98 1012.13 1012.24 1012.46 1012.67 1012.89 1013.12 1013.11 1013.27 1014.01
1011.96 1012.45 1012.77 1013.14 1013.40 1013.57 1013.79 1014.12 1014.25 1014.36 1014.49 1014.69 1014.90 1015.01 1015.07 1015.33 1015.49 1015.23 1015.03 1014.87 1014.73 1014.65 1014.55 1014.31 1014.01 1013.61 1013.52 1013.07 1012.52 1012.31 1012.36 1012.49 1012.67 1012.35 1012.00 1012.11 1012.39 1012.80 1012.70 1013.16 1013.39 1013.95 1014.27
1012.19 1012.66 1012.97 1013.35 1013.71 1014.01 1014.28 1014.43 1014.68 1014.80 1014.87 1015.09 1015.24 1015.43 1015.53 1015.57 1015.63 1015.76 1015.76 1015.61 1015.63 1015.61 1015.55 1015.31 1015.01 1014.72 1014.38 1013.74 1013.23 1012.86 1013.10 1013.40 1013.64 1013.24 1012.94 1012.95 1012.80 1012.78 1013.12 1013.66 1013.81 1014.38 1014.41
1012.29 1012.77 1013.23 1013.68 1014.12 1014.51 1014.62 1014.79 1015.11 1015.17 1015.33 1015.47 1015.65 1015.75 1015.88 1016.01 1016.15 1016.28 1016.25 1016.36 1016.17 1016.12 1015.95 1015.85 1015.74 1015.52 1015.08 1014.48 1014.01 1013.79 1013.98 1014.42 1014.64 1014.88 1014.75 1014.26 1013.87 1013.67 1012.87 1014.17 1013.94 1014.84 1015.55
1012.49 1012.93 1013.45 1014.02 1014.38 1014.61 1014.82 1015.19 1015.35 1015.54 1015.59 1015.68 1015.82 1015.97 1016.11 1016.34 1016.55 1016.71 1016.74 1016.71 1016.58 1016.42 1016.46 1016.39 1016.38 1016.28 1016.07 1015.67 1015.14 1014.90 1014.83 1015.01 1015.21 1015.41 1015.44 1015.29 1014.97 1014.98 1014.74 1015.05 1015.57 1016.07 1016.02
1012.75 1013.20 1013.77 1014.29 1014.47 1014.68 1014.90 1015.33 1015.51 1015.56 1015.71 1015.99 1016.25 1016.40 1016.50 1016.58 1016.76 1016.88 1017.17 1017.21 1017.07 1017.04 1017.10 1017.05 1017.03 1016.98 1016.84 1016.50 1016.19 1015.84 1015.64 1015.66 1015.62 1015.85 1015.94 1015.79 1015.54 1015.64 1015.97 1016.19 1016.39 1015.78 1015.79
1012.78 1013.30 1013.80 1014.32 1014.56 1014.72 1014.85 1015.21 1015.38 1015.51 1015.91 1016.32 1016.69 1016.90 1017.00 1017.16 1017.26 1017.44 1017.70 1017.68 1017.63 1017.69 1017.78 1017.73 1017.70 1017.65 1017.40 1017.13 1016.95 1016.74 1016.50 1016.36 1016.30 1016.33 1016.27 1016.24 1016.21 1016.20 1016.16 1016.00 1015.75 1015.58 1015.54
1012.96 1013.53 1014.02 1014.43 1014.72 1014.76 1014.87 1014.93 1015.15 1015.36 1015.89 1016.46 1016.92 1017.27 1017.46 1017.77 1017.81 1017.85 1018.06 1018.15 1018.17 1018.15 1018.17 1018.18 1018.20 1018.08 1017.92 1017.73 1017.59 1017.40 1017.08 1016.92 1016.83 1016.75 1016.62 1016.53 1016.41 1016.28 1016.13 1015.83 1015.58 1015.55 1015.61
1013.05 1013.58 1014.20 1014.59 1014.83 1014.86 1015.05 1015.01 1015.18 1015.44 1015.98 1016.46 1016.97 1017.35 1017.63 1017.97 1018.32 1018.57 1018.76 1018.65 1018.62 1018.55 1018.54 1018.52 1018.48 1018.43 1018.37 1018.38 1018.18 1017.92 1017.58 1017.38 1017.14 1016.73 1016.58 1016.58 1016.49 1016.40 1016.22 1016.09 1016.01 1015.94 1015.87
1013.11 1013.79 1014.39 1014.79 1014.99 1014.98 1015.14 1015.28 1015.41 1015.63 1016.14 1016.58 1016.93 1017.28 1017.70 1018.11 1018.42 1018.69 1018.93 1018.76 1018.58 1018.41 1018.40 1018.50 1018.53 1018.65 1018.58 1018.41 1018.18 1017.92 1017.66 1017.42 1017.17 1017.10 1017.11 1017.05 1016.99 1016.95 1016.80 1016.58 1016.51 1016.29 1016.07
Wind_Speed
10 14 17 16 13 10 10 10 9 7 5 2 3 3 4 3 2 4 6 6 7 7 6 5 4 3 4 5 2 3 4 2 2 1 3 1 2 3 1 1 4 5 4
7 16 15 16 15 15 15 12 13 9 6 5 3 3 2 2 2 4 5 7 7 7 6 6 5 4 4 5 3 3 2 2 2 2 1 2 3 1 1 2 4 6 3
12 15 17 17 14 12 14 13 13 13 9 6 4 3 2 1 2 3 3 5 7 7 7 7 6 6 3 3 3 3 4 2 2 3 3 0 3 1 0 2 1 3 0
14 13 16 15 15 15 12 13 13 13 8 8 6 6 5 4 4 4 5 5 8 7 6 6 5 5 3 4 4 3 3 2 3 3 3 3 3 3 2 1 2 3 7
16 16 17 18 17 14 13 11 13 11 9 9 9 7 5 4 3 3 6 5 5 6 5 6 6 5 4 4 4 2 3 3 3 3 1 1 1 2 2 2 3 2 6
16 15 15 14 15 13 12 11 12 11 8 9 10 9 8 6 4 4 4 4 4 4 5 6 5 5 4 4 3 3 3 4 3 3 3 2 2 2 2 2 3 3 4
15 13 16 9 13 14 14 12 12 11 8 8 9 9 8 7 6 6 4 3 3 3 7 5 5 4 4 5 5 4 3 3 2 3 3 2 3 3 3 2 2 0 3
14 14 16 13 15 15 15 14 13 11 9 8 8 7 7 4 4 5 3 3 3 4 5 6 5 5 5 5 4 2 3 4 4 6 4 3 2 2 2 4 3 1 2
16 12 9 10 12 13 15 15 13 9 11 9 6 6 6 6 5 6 5 4 5 5 6 7 7 7 7 7 7 5 3 3 3 3 3 3 1 1 1 2 3 5 1
8 7 7 8 8 11 9 8 10 12 11 8 7 6 6 6 6 6 7 7 6 5 5 6 5 5 7 7 7 3 3 3 3 3 3 2 1 1 2 1 2 2 4
9 9 8 8 9 9 9 9 8 9 9 9 8 8 8 8 7 7 7 7 7 8 8 7 7 7 5 5 5 5 4 2 4 3 3 4 3 1 2 1 2 2 2
7 9 9 9 9 10 9 11 9 9 10 10 7 9 8 7 7 9 9 7 8 5 13 15 15 9 3 3 5 6 4 5 5 5 3 5 3 2 3 3 3 2 2
10 10 11 8 7 6 5 5 4 4 4 2 1 5 6 5 6 6 6 6 5 9 7 8 11 2 12 6 5 7 6 6 6 7 6 7 5 4 2 2 4 3 2
13 14 12 10 11 11 11 10 10 9 8 8 11 9 8 8 8 7 5 4 2 3 7 10 10 12 8 6 5 6 6 5 5 6 6 6 7 7 6 4 3 3 4
13 12 11 10 10 11 12 10 9 9 9 12 12 8 6 6 5 5 5 6 6 1 3 6 5 2 4 4 6 8 7 5 8 7 6 7 8 11 9 5 5 5 3
12 11 11 11 10 9 10 9 9 8 7 11 9 6 7 7 7 7 7 6 5 3 2 2 1 2 4 11 16 11 7 6 8 7 7 6 10 10 13 11 12 7 5
10 10 10 8 8 8 8 9 7 5 8 9 8 7 7 8 7 6 7 8 6 5 6 5 5 5 6 10 9 10 5 6 7 7 6 5 5 6 6 7 9 9 5
10 9 8 8 7 6 8 7 6 6 7 9 9 9 9 9 7 9 10 10 11 12 11 11 11 9 8 16 10 6 3 5 7 6 5 4 2 4 8 7 6 4 3
8 8 8 7 7 7 6 7 7 7 8 8 9 8 8 9 10 12 10 10 9 10 9 9 10 10 9 15 9 10 8 10 11 11 11 9 9 12 10 4 10 8 10
10 10 9 7 8 6 6 7 7 6 7 6 6 6 6 8 9 7 8 7 11 10 7 8 9 12 9 14 12 9 7 10 8 9 12 22 18 25 22 10 10 9 5
12 8 8 7 7 6 7 7 6 6 5 6 6 6 6 7 6 6 5 4 6 7 8 8 8 9 9 11 13 11 8 6 6 5 4 6 16 17 16 11 5 3 3
11 8 8 7 6 6 7 6 6 5 6 6 6 6 7 6 4 7 5 5 6 6 6 8 7 5 6 10 11 12 11 7 6 5 4 4 9 11 9 7 8 5 4
10 7 9 8 6 6 6 7 6 7 7 7 6 6 6 6 6 6 5 4 5 4 4 4 4 3 4 4 10 10 8 8 4 2 2 5 4 4 3 1 2 3 2
11 7 9 7 6 6 5 5 7 7 7 7 6 6 6 6 5 4 4 4 4 4 4 4 4 4 4 4 4 4 4 5 4 2 1 3 1 2 2 3 5 3 2
8 9 8 6 6 5 6 5 6 7 6 6 6 5 5 5 5 4 3 3 2 2 3 2 2 3 4 4 5 4 5 4 3 3 3 4 3 4 4 4 4 4 2
9 9 7 7 6 6 6 5 5 6 6 4 4 4 5 4 4 4 4 7 5 6 6 3 2 1 1 4 6 8 9 10 11 4 3 3 4 3 3 4 3 3 4
Wind_Direction
162 157 165 164 167 173 166 164 164 184 157 144 147 161 184 188 199 212 202 211 229 230 226 213 224 187 201 236 258 227 228 268 234 309 305 321 56 56 168 181 189 73 279
164 163 170 174 178 177 182 169 175 173 187 169 162 137 150 217 207 200 217 214 219 217 210 210 212 205 212 212 236 212 253 261 204 183 91 315 327 75 229 227 334 104 312
182 171 177 182 182 178 174 174 180 177 186 178 109 81 49 320 253 227 232 230 221 235 214 203 197 206 190 209 219 203 199 231 311 199 173 184 235 320 41 113 190 94 200
193 178 182 186 190 187 179 175 174 182 185 164 168 180 173 188 227 217 223 213 217 222 210 202 204 205 195 198 213 194 182 145 242 297 191 220 175 192 322 90 232 200 204
191 192 188 190 193 184 184 178 176 179 180 174 181 191 192 219 236 216 199 216 218 231 223 204 206 212 212 216 212 203 188 186 192 215 260 191 227 203 145 257 236 241 221
198 197 200 188 187 186 180 176 182 192 182 178 184 193 206 200 197 213 203 223 221 233 242 218 211 203 193 203 228 201 182 197 218 232 240 195 181 222 167 211 247 212 229
188 192 202 183 180 179 179 173 182 196 197 189 190 194 200 206 211 205 205 203 225 243 240 209 204 187 189 197 184 191 222 232 223 230 248 202 215 201 194 170 244 229 291
188 193 198 185 180 176 177 180 179 191 196 199 206 202 205 204 205 216 215 233 226 248 254 217 201 208 189 189 204 210 233 231 237 230 228 250 264 289 198 180 145 342 319
189 191 184 172 166 171 178 181 181 187 194 206 204 215 215 208 211 223 221 230 226 223 220 195 189 195 181 184 184 188 215 298 274 236 227 213 229 100 245 199 154 149 212
172 159 155 152 153 169 164 165 181 190 195 192 195 202 212 224 225 220 230 232 250 224 223 215 209 199 187 188 182 192 211 220 223 241 222 199 214 322 57 174 137 127 142
163 158 158 157 146 149 155 170 176 179 190 193 197 203 212 215 217 223 233 233 233 228 202 206 198 189 202 220 214 175 202 240 244 237 226 225 182 194 69 86 105 91 106
154 159 146 147 148 154 165 183 189 192 202 201 200 215 222 220 220 226 236 262 250 284 29 24 355 319 233 270 262 237 200 204 247 256 245 248 218 198 162 124 103 107 108
75 80 75 70 80 88 73 67 35 315 291 256 304 6 339 329 345 34 24 349 269 147 128 95 295 136 268 213 231 248 220 190 223 231 217 225 198 198 187 153 133 129 103
88 87 76 67 66 64 67 60 46 31 29 69 66 55 44 60 59 52 34 350 288 151 132 142 181 206 234 211 247 240 242 253 237 232 224 221 199 189 190 154 158 144 113
86 82 81 76 69 73 73 70 64 50 50 67 69 64 54 62 59 52 37 18 16 55 218 175 303 61 273 277 250 231 240 230 233 230 221 220 204 193 180 159 158 139 131
95 92 87 85 78 80 79 73 68 61 70 75 76 66 60 54 46 36 41 41 28 41 32 317 27 302 288 278 282 264 243 230 235 228 230 224 206 195 180 164 151 158 151
98 90 90 84 82 83 88 80 80 70 68 71 67 72 70 58 36 29 33 32 22 9 359 338 309 282 265 271 271 261 242 240 246 237 234 197 201 185 167 171 148 141 152
113 104 107 100 87 85 82 84 70 65 70 70 71 62 58 61 56 48 44 48 39 37 31 22 12 5 11 348 341 358 352 22 18 339 259 213 115 213 157 149 131 100 20
119 114 112 108 99 90 87 86 74 69 69 68 70 69 68 62 57 64 57 62 55 53 46 39 32 26 14 4 24 74 79 70 52 52 53 65 65 72 62 66 96 63 30
124 121 112 104 98 101 99 92 85 76 69 74 88 84 80 72 65 60 58 59 70 70 63 51 40 34 31 12 31 56 78 75 70 57 66 78 69 57 63 64 82 69 4
130 120 111 119 132 124 110 101 99 93 102 81 81 76 74 82 77 69 58 54 70 69 56 53 43 40 27 29 35 63 84 91 89 85 73 66 76 77 77 81 69 38 322
133 126 121 130 138 133 115 120 112 124 101 90 82 71 67 69 81 86 68 51 50 53 43 54 46 26 19 29 33 50 64 71 85 89 101 112 119 132 151 159 176 153 155
141 133 136 137 142 139 133 131 156 129 116 96 101 87 72 63 61 78 77 66 57 61 48 54 53 29 11 22 27 37 53 68 73 91 128 133 121 148 185 86 81 65 44
147 141 136 140 142 145 142 147 148 140 125 118 112 102 93 77 57 61 61 72 62 65 57 43 35 12 6 13 7 2 9 19 35 28 238 220 227 340 313 345 7 5 353
144 142 142 143 148 148 140 146 143 144 144 136 134 122 106 100 88 65 33 46 49 28 80 70 71 40 17 354 343 341 359 1 352 329 28 30 22 21 21 23 15 6 4
141 140 140 141 150 129 143 143 146 142 136 153 166 161 139 128 116 108 86 45 45 35 45 42 127 72 55 354 5 4 358 356 358 41 34 29 38 41 15 26 1 4 10